K5BOU Weather Reports


Display with metric or nautical units.
time (UTC)temp
F
wind
direction
speed
MPH
gust
MPH
rain 1hr
in
rain 24hr
in
rain mn
in
humidity
%
barometer
mb
20260904152542 87 211 2.0 3.0 0.00 0.00 0.00 87 1012.6
20260904152038 87 174 0.0 2.0 0.00 0.00 0.00 86 1012.7
20260904151533 88 182 1.0 2.0 0.00 0.00 0.00 85 1012.9
20260904151027 89 179 3.0 5.0 0.00 0.00 0.00 85 1012.7
20260904150526 88 164 2.0 2.0 0.00 0.00 0.00 86 1012.5
20260904150021 88 169 2.0 3.0 0.00 0.00 0.00 86 1012.6
20260904145516 89 198 3.0 5.0 0.00 0.00 0.00 83 1012.6
20260904145011 89 193 0.0 1.0 0.00 0.00 0.00 84 1012.8
20260904144507 90 177 2.0 2.0 0.00 0.00 0.00 85 1012.7
20260904144003 89 158 0.0 2.0 0.00 0.00 0.00 86 1012.5
20260904143458 90 146 3.0 6.0 0.00 0.00 0.00 85 1012.7
20260904142955 89 189 1.0 5.0 0.00 0.00 0.00 87 1012.5
20260904142451 89 151 1.0 2.0 0.00 0.00 0.00 86 1012.8
20260904141950 89 139 0.0 1.0 0.00 0.00 0.00 86 1012.6
20260904141445 89 148 0.0 3.0 0.00 0.00 0.00 87 1012.6
20260904140942 88 191 1.0 2.0 0.00 0.00 0.00 88 1012.5
20260904140441 87 171 0.0 3.0 0.00 0.00 0.00 91 1012.6
20260904135940 86 182 1.0 1.0 0.00 0.00 0.00 92 1012.7
20260904135440 86 170 0.0 2.0 0.00 0.00 0.00 92 1012.7
20260904134937 86 177 0.0 1.0 0.00 0.00 0.00 92 1012.7
20260904134436 86 166 0.0 2.0 0.00 0.00 0.00 92 1012.6
20260904133931 86 171 1.0 2.0 0.00 0.00 0.00 92 1012.7
20260904133426 87 173 1.0 1.0 0.00 0.00 0.00 92 1012.6
20260904132922 87 169 0.0 1.0 0.00 0.00 0.00 92 1012.7
20260904132417 86 176 0.0 0.0 0.00 0.00 0.00 93 1012.5
20260904131916 85 177 0.0 2.0 0.00 0.00 0.00 94 1012.6
20260904131412 84 171 0.0 1.0 0.00 0.00 0.00 97 1012.2
20260904130908 83 160 0.0 0.0 0.00 0.00 0.00 99 1012.3
20260904130406 82 161 0.0 0.0 0.00 0.00 0.00 99 1012.4
20260904125901 82 163 0.0 0.0 0.00 0.00 0.00 99 1012.3
20260904125358 81 170 0.0 0.0 0.00 0.00 0.00 99 1012.3
20260904124857 81 190 0.0 0.0 0.00 0.00 0.00 99 1012.2
20260904124354 80 191 0.0 0.0 0.00 0.00 0.00 99 1012.2
20260904123849 80 192 0.0 0.0 0.00 0.00 0.00 99 1012.2
20260904123344 80 192 0.0 0.0 0.00 0.00 0.00 99 1012.0
20260904122839 80 188 0.0 0.0 0.00 0.00 0.00 99 1012.2
20260904122338 79 188 0.0 0.0 0.00 0.00 0.00 99 1012.1
20260904121834 79 188 0.0 0.0 0.00 0.00 0.00 99 1012.0
20260904121330 79 189 0.0 0.0 0.00 0.00 0.00 99 1011.9
20260904120826 79 189 0.0 0.0 0.00 0.00 0.00 99 1011.9
20260904120321 79 189 0.0 0.0 0.00 0.00 0.00 99 1012.0
20260904115816 79 175 0.0 0.0 0.00 0.00 0.00 99 1011.9
20260904115312 79 173 0.0 0.0 0.00 0.00 0.00 99 1011.8
20260904114811 79 173 0.0 0.0 0.00 0.00 0.00 99 1011.8
20260904114306 79 173 0.0 0.0 0.00 0.00 0.00 99 1011.8
20260904113802 79 173 0.0 0.0 0.00 0.00 0.00 99 1011.8
20260904113300 79 173 0.0 0.0 0.00 0.00 0.00 99 1011.8
20260904112755 79 171 0.0 0.0 0.00 0.00 0.00 99 1011.9
20260904112251 79 173 0.0 0.0 0.00 0.00 0.00 99 1011.7
20260904111747 79 173 0.0 0.0 0.00 0.00 0.00 99 1011.6
20260904111243 79 173 0.0 0.0 0.00 0.00 0.00 99 1011.6
20260904110738 79 173 0.0 0.0 0.00 0.00 0.00 99 1011.6
20260904110237 79 173 0.0 0.0 0.00 0.00 0.00 99 1011.6
20260904105732 79 173 0.0 0.0 0.00 0.00 0.00 99 1011.6
20260904105227 79 173 0.0 0.0 0.00 0.00 0.00 99 1011.6
20260904104722 79 166 0.0 0.0 0.00 0.00 0.00 99 1011.6
20260904104218 79 164 0.0 0.0 0.00 0.00 0.00 99 1011.5
20260904103715 79 163 0.0 0.0 0.00 0.00 0.00 99 1011.6
20260904103209 79 187 0.0 0.0 0.00 0.00 0.00 99 1011.6
20260904102705 79 188 0.0 0.0 0.00 0.00 0.00 99 1011.5
20260904102200 79 188 0.0 0.0 0.00 0.00 0.00 99 1011.2
20260904101657 79 188 0.0 0.0 0.00 0.00 0.00 99 1011.5
20260904101152 79 188 0.0 0.0 0.00 0.00 0.00 99 1011.5
20260904100648 79 188 0.0 0.0 0.00 0.00 0.00 99 1011.3
20260904100143 79 188 0.0 0.0 0.00 0.00 0.00 99 1011.2
20260904095643 79 188 0.0 0.0 0.00 0.00 0.00 99 1011.3
20260904095137 79 188 0.0 0.0 0.00 0.00 0.00 99 1011.3
20260904094633 79 188 0.0 0.0 0.00 0.00 0.00 99 1011.3
20260904094133 79 188 0.0 0.0 0.00 0.00 0.00 99 1011.2
20260904093630 79 188 0.0 0.0 0.00 0.00 0.00 99 1011.3
20260904093129 79 188 0.0 0.0 0.00 0.00 0.00 99 1011.2
20260904092626 79 188 0.0 0.0 0.00 0.00 0.00 99 1011.1
20260904092122 79 188 0.0 0.0 0.00 0.00 0.00 99 1011.2
20260904091618 79 188 0.0 0.0 0.00 0.00 0.00 99 1011.3
20260904091117 79 188 0.0 0.0 0.00 0.00 0.00 99 1011.2
20260904090613 79 188 0.0 0.0 0.00 0.00 0.00 99 1011.2
20260904090109 79 188 0.0 0.0 0.00 0.00 0.00 99 1011.3
20260904085603 80 188 0.0 0.0 0.00 0.00 0.00 99 1011.1
20260904085102 79 188 0.0 0.0 0.00 0.00 0.00 99 1011.2
20260904084558 79 187 0.0 0.0 0.00 0.00 0.00 99 1011.4
20260904084055 79 187 0.0 0.0 0.00 0.00 0.00 99 1011.6
20260904083550 79 188 0.0 0.0 0.00 0.00 0.00 99 1011.4
20260904083046 79 188 0.0 0.0 0.00 0.00 0.00 99 1011.3
20260904082541 79 188 0.0 0.0 0.00 0.00 0.00 99 1011.3
20260904082036 80 188 0.0 0.0 0.00 0.00 0.00 99 1011.2
20260904081532 80 188 0.0 0.0 0.00 0.00 0.00 99 1011.5
20260904081027 80 188 0.0 0.0 0.00 0.00 0.00 99 1011.3
20260904080522 80 188 0.0 0.0 0.00 0.00 0.00 99 1011.2
20260904080019 80 188 0.0 0.0 0.00 0.00 0.00 99 1011.4
20260904075514 80 188 0.0 0.0 0.00 0.00 0.00 99 1011.4
20260904075009 80 188 0.0 0.0 0.00 0.00 0.00 99 1011.3
20260904074503 80 188 0.0 0.0 0.00 0.00 0.00 99 1011.3
20260904073958 80 188 0.0 0.0 0.00 0.00 0.00 99 1011.3
20260904073453 80 188 0.0 0.0 0.00 0.00 0.00 99 1011.4
20260904072949 80 188 0.0 0.0 0.00 0.00 0.00 99 1011.4
20260904072445 80 188 0.0 0.0 0.00 0.00 0.00 99 1011.5
20260904071945 80 183 0.0 0.0 0.00 0.00 0.00 99 1011.3
20260904071441 80 182 0.0 0.0 0.00 0.00 0.00 99 1011.6
20260904070935 80 189 0.0 0.0 0.00 0.00 0.00 99 1011.5
20260904070433 80 189 0.0 0.0 0.00 0.00 0.00 99 1011.5
20260904065928 80 197 0.0 0.0 0.00 0.00 0.00 99 1011.5
20260904065425 80 181 1.0 1.0 0.00 0.00 0.00 99 1011.5
20260904064925 80 194 0.0 0.0 0.00 0.00 0.00 99 1011.8
20260904064421 80 185 0.0 2.0 0.00 0.00 0.00 99 1011.8
20260904063916 80 182 1.0 1.0 0.00 0.00 0.00 99 1011.8
20260904063413 80 198 0.0 2.0 0.00 0.00 0.00 99 1011.8
20260904062907 80 194 0.0 0.0 0.00 0.00 0.00 99 1011.7
20260904062403 80 178 0.0 0.0 0.00 0.00 0.00 99 1011.9
20260904061859 80 179 0.0 0.0 0.00 0.00 0.00 99 1011.8
20260904061355 80 170 0.0 0.0 0.00 0.00 0.00 99 1011.6
20260904060851 80 170 0.0 0.0 0.00 0.00 0.00 99 1011.8
20260904060347 81 170 0.0 0.0 0.00 0.00 0.00 99 1011.7
20260904055842 81 170 0.0 0.0 0.00 0.00 0.00 99 1011.8
20260904055337 81 170 0.0 0.0 0.00 0.00 0.00 99 1011.7
20260904054832 81 170 0.0 0.0 0.00 0.00 0.00 99 1011.7
20260904054328 81 169 0.0 0.0 0.00 0.00 0.00 99 1011.6
20260904053824 81 169 0.0 0.0 0.00 0.00 0.00 99 1011.6
20260904053323 81 169 0.0 0.0 0.00 0.00 0.00 99 1011.6
20260904052819 81 169 0.0 0.0 0.00 0.00 0.00 99 1011.7
20260904052316 81 176 0.0 1.0 0.00 0.00 0.00 99 1011.7
20260904051812 81 177 0.0 1.0 0.00 0.00 0.00 99 1011.6
20260904051307 81 160 2.0 2.0 0.00 0.00 0.00 99 1011.5
20260904050802 81 178 0.0 1.0 0.00 0.00 0.00 99 1011.5
20260904050258 81 186 0.0 0.0 0.00 0.00 0.00 99 1011.6
20260904045753 81 182 0.0 0.0 0.00 0.18 0.18 99 1011.7
20260904045247 81 175 0.0 2.0 0.00 0.18 0.18 99 1011.7
20260904044742 81 177 0.0 0.0 0.00 0.18 0.18 99 1011.7
20260904044239 81 183 0.0 0.0 0.00 0.18 0.18 99 1011.7
20260904043735 81 178 0.0 1.0 0.00 0.18 0.18 99 1011.5
20260904043231 81 173 0.0 1.0 0.00 0.18 0.18 99 1011.4
20260904042726 81 163 0.0 0.0 0.00 0.18 0.18 99 1011.6
20260904042222 81 165 0.0 0.0 0.00 0.18 0.18 99 1011.6
20260904041721 81 170 0.0 0.0 0.00 0.18 0.18 99 1011.8
20260904041218 81 167 0.0 1.0 0.00 0.18 0.18 99 1011.5
20260904040714 81 166 0.0 1.0 0.00 0.18 0.18 99 1011.4
20260904040209 81 170 0.0 1.0 0.00 0.18 0.18 99 1011.5
20260904035705 81 180 0.0 0.0 0.00 0.18 0.18 99 1011.5
20260904035200 81 177 0.0 1.0 0.00 0.18 0.18 99 1011.5
20260904034659 81 154 0.0 1.0 0.00 0.18 0.18 99 1011.4
20260904034155 81 166 0.0 0.0 0.00 0.18 0.18 99 1011.6
20260904033651 81 163 0.0 0.0 0.00 0.18 0.18 99 1011.7
20260904033148 81 160 0.0 2.0 0.00 0.18 0.18 99 1011.6
20260904032643 81 162 0.0 0.0 0.00 0.18 0.18 99 1011.7
20260904032142 81 170 0.0 0.0 0.00 0.18 0.18 99 1011.5
20260904031642 81 174 0.0 0.0 0.00 0.18 0.18 99 1011.3
20260904031138 81 159 1.0 3.0 0.00 0.18 0.18 99 1011.5
20260904030633 81 182 0.0 2.0 0.00 0.18 0.18 99 1011.4
20260904030128 81 175 0.0 1.0 0.00 0.18 0.18 99 1011.6
20260904025624 81 172 0.0 2.0 0.00 0.18 0.18 99 1011.5
20260904025119 81 155 2.0 2.0 0.00 0.18 0.18 99 1011.3
20260904024614 81 170 1.0 1.0 0.00 0.18 0.18 99 1011.3
20260904024110 81 143 1.0 2.0 0.00 0.18 0.18 99 1011.3
20260904023606 81 119 1.0 2.0 0.00 0.18 0.18 99 1011.2
20260904023102 81 183 0.0 2.0 0.00 0.18 0.18 99 1011.1
20260904022556 81 185 1.0 3.0 0.00 0.18 0.18 99 1011.0
20260904022053 81 160 0.0 1.0 0.00 0.18 0.18 99 1011.0
20260904021548 81 174 0.0 2.0 0.00 0.18 0.18 99 1011.1
20260904021043 81 176 0.0 3.0 0.00 0.18 0.18 99 1010.8
20260904020538 82 130 1.0 3.0 0.00 0.18 0.18 99 1011.0
20260904020033 81 144 2.0 3.0 0.00 0.18 0.18 99 1010.7
20260904015527 81 185 0.0 1.0 0.00 0.18 0.18 99 1010.8
20260904015026 81 181 1.0 2.0 0.00 0.18 0.18 99 1010.7
20260904014520 81 165 0.0 3.0 0.00 0.18 0.18 99 1010.6
20260904014016 81 166 0.0 1.0 0.00 0.18 0.18 99 1010.4
20260904013512 81 162 1.0 3.0 0.00 0.18 0.18 99 1010.4
20260904013009 81 167 0.0 1.0 0.00 0.18 0.18 99 1010.5
20260904012508 81 173 0.0 2.0 0.00 0.18 0.18 99 1010.5
20260904012003 81 173 0.0 0.0 0.00 0.18 0.18 99 1010.5
20260904011457 81 175 0.0 0.0 0.00 0.18 0.18 99 1010.4
20260904010952 81 177 0.0 0.0 0.00 0.18 0.18 98 1010.5
20260904010449 81 167 0.0 0.0 0.00 0.18 0.18 98 1010.5
20260904005949 81 168 0.0 0.0 0.00 0.18 0.18 98 1010.2
20260904005445 81 167 0.0 0.0 0.00 0.18 0.18 97 1010.3
20260904004939 81 185 0.0 0.0 0.00 0.18 0.18 97 1010.5
20260904004436 81 159 0.0 0.0 0.00 0.18 0.18 97 1010.3
20260904003936 81 169 0.0 0.0 0.00 0.18 0.18 97 1010.4
20260904003432 81 159 0.0 0.0 0.00 0.18 0.18 97 1010.5
20260904002926 82 167 0.0 0.0 0.00 0.18 0.18 97 1010.4
20260904002423 82 163 0.0 1.0 0.00 0.18 0.18 97 1010.5
20260904001921 82 168 0.0 0.0 0.00 0.18 0.18 97 1010.3
20260904001417 82 164 0.0 0.0 0.00 0.18 0.18 97 1010.3
20260904000912 82 180 0.0 0.0 0.00 0.18 0.18 98 1010.5
20260904000412 82 120 0.0 0.0 0.00 0.18 0.18 98 1010.3
20260903235907 81 173 0.0 1.0 0.00 0.18 0.18 99 1010.4
20260903235403 81 143 0.0 0.0 0.00 0.18 0.18 99 1010.5
20260903234902 81 154 0.0 0.0 0.00 0.18 0.18 99 1010.4
20260903234358 81 168 0.0 0.0 0.00 0.18 0.18 99 1010.5
20260903233854 81 169 0.0 0.0 0.00 0.18 0.18 99 1010.6
20260903233350 80 164 0.0 0.0 0.00 0.18 0.18 99 1010.4
20260903232849 80 171 0.0 0.0 0.00 0.18 0.18 99 1010.3
20260903232345 80 162 0.0 0.0 0.00 0.18 0.18 99 1010.4
20260903231844 80 178 0.0 0.0 0.00 0.18 0.18 99 1010.4
20260903231340 80 179 0.0 1.0 0.00 0.18 0.18 99 1010.5
20260903230835 80 163 0.0 0.0 0.00 0.18 0.18 99 1010.6
20260903230330 80 141 0.0 0.0 0.00 0.18 0.18 99 1010.6
20260903225826 80 134 0.0 0.0 0.00 0.18 0.18 99 1010.6
20260903225322 79 157 0.0 0.0 0.00 0.18 0.18 99 1010.7
20260903224818 79 140 0.0 1.0 0.00 0.18 0.18 99 1010.7
20260903224314 79 166 0.0 1.0 0.00 0.18 0.18 99 1010.9
20260903223810 79 161 0.0 0.0 0.00 0.18 0.18 99 1010.7
20260903223308 79 172 0.0 1.0 0.00 0.18 0.18 99 1010.7
20260903222803 79 164 0.0 0.0 0.00 0.18 0.18 99 1010.6
20260903222305 79 152 0.0 0.0 0.00 0.18 0.18 99 1010.6
20260903221757 79 159 0.0 2.0 0.00 0.18 0.18 99 1010.8
20260903221256 78 129 0.0 1.0 0.00 0.18 0.18 99 1010.4
20260903220755 78 163 0.0 0.0 0.00 0.18 0.18 99 1010.6
20260903220249 78 168 0.0 0.0 0.00 0.18 0.18 99 1010.7
20260903215747 78 134 0.0 2.0 0.00 0.18 0.18 99 1010.8
20260903215244 78 153 0.0 3.0 0.00 0.18 0.18 99 1010.8
20260903214741 79 175 0.0 1.0 0.00 0.18 0.18 99 1010.9
20260903214239 79 165 0.0 5.0 0.07 0.18 0.18 99 1011.3
20260903213732 78 177 0.0 3.0 0.07 0.18 0.18 99 1011.4
20260903213228 79 43 3.0 3.0 0.05 0.17 0.17 99 1011.3
20260903212724 79 164 0.0 1.0 0.17 0.17 0.17 99 1011.5
20260903212221 78 147 0.0 2.0 0.24 0.15 0.15 99 1011.6
20260903211719 78 164 0.0 2.0 0.24 0.13 0.13 99 1011.5
20260903211216 78 104 1.0 1.0 0.19 0.11 0.11 99 1011.8
20260903210712 78 169 0.0 0.0 0.12 0.09 0.09 99 1011.5
20260903210207 78 196 0.0 0.0 0.05 0.08 0.08 99 1011.6
20260903205706 78 201 0.0 0.0 0.07 0.07 0.07 99 1011.9
20260903205206 78 201 0.0 0.0 0.07 0.07 0.07 99 1011.6
20260903204701 78 211 0.0 1.0 0.05 0.06 0.06 99 1011.8
20260903204158 78 255 2.0 2.0 0.12 0.06 0.06 99 1011.5
20260903203653 78 178 0.0 0.0 0.12 0.05 0.05 99 1011.5
20260903203148 78 196 0.0 0.0 0.17 0.04 0.04 99 1011.7
20260903202643 78 211 0.0 1.0 0.05 0.02 0.02 99 1011.9
20260903202138 78 195 0.0 1.0 0.00 0.01 0.01 99 1012.0
20260903201632 78 219 1.0 2.0 0.00 0.01 0.01 99 1012.0
20260903201132 78 194 1.0 5.0 0.00 0.01 0.01 99 1012.0
20260903200628 78 246 4.0 6.0 0.00 0.01 0.01 98 1012.1
20260903200122 79 218 2.0 3.0 0.00 0.01 0.01 97 1012.0
20260903195618 79 214 3.0 3.0 0.00 0.01 0.01 96 1012.0
20260903195114 79 297 1.0 3.0 0.00 0.01 0.01 96 1011.8
20260903194609 79 220 2.0 3.0 0.00 0.01 0.01 95 1011.9
20260903194109 79 244 2.0 3.0 0.00 0.01 0.01 95 1011.7
20260903193605 80 224 0.0 3.0 0.00 0.01 0.01 94 1011.9
20260903193100 80 283 3.0 7.0 0.00 0.01 0.01 93 1012.0
20260903192557 81 298 3.0 8.0 0.00 0.01 0.01 91 1012.4
20260903192051 81 297 4.0 7.0 0.00 0.01 0.01 88 1012.3
20260903191543 81 244 2.0 5.0 0.00 0.01 0.01 87 1012.4
20260903191043 82 224 3.0 5.0 0.00 0.01 0.01 86 1012.4
20260903190542 82 187 0.0 1.0 0.00 0.01 0.01 86 1012.3
20260903190042 83 211 1.0 7.0 0.00 0.01 0.01 87 1012.5
20260903185537 84 226 2.0 7.0 0.00 0.01 0.01 87 1012.4
20260903185032 85 233 2.0 5.0 0.00 0.01 0.01 86 1012.2
20260903184529 85 169 2.0 3.0 0.00 0.01 0.01 85 1011.9
20260903184024 85 172 3.0 9.0 0.00 0.01 0.01 85 1011.8
20260903183523 86 171 5.0 10.0 0.00 0.01 0.01 84 1012.0
20260903183018 87 302 2.0 5.0 0.00 0.01 0.01 83 1011.8
20260903182516 87 121 1.0 3.0 0.00 0.01 0.01 83 1011.8
20260903182013 87 176 0.0 2.0 0.00 0.01 0.01 82 1011.9
20260903181506 87 171 0.0 3.0 0.00 0.01 0.01 81 1011.9
20260903181006 87 171 1.0 3.0 0.00 0.01 0.01 81 1011.7
20260903180501 87 106 5.0 7.0 0.00 0.01 0.01 80 1011.7
20260903180000 88 187 2.0 6.0 0.00 0.01 0.01 81 1012.0
20260903175454 89 166 1.0 8.0 0.00 0.01 0.01 82 1012.0
20260903174953 91 165 4.0 6.0 0.00 0.01 0.01 79 1012.0
20260903174449 90 203 0.0 2.0 0.00 0.01 0.01 77 1012.2
20260903173948 91 189 0.0 0.0 0.00 0.01 0.01 77 1012.0
20260903173444 91 200 1.0 2.0 0.00 0.01 0.01 76 1012.0
20260903172939 91 196 0.0 1.0 0.00 0.01 0.01 77 1011.9
20260903172434 91 217 5.0 7.0 0.00 0.01 0.01 76 1012.0
20260903171930 92 218 2.0 3.0 0.00 0.01 0.01 78 1011.9
20260903171425 91 180 0.0 2.0 0.00 0.01 0.01 79 1012.4
20260903170925 91 241 2.0 7.0 0.00 0.01 0.01 80 1012.5
20260903170419 91 215 3.0 5.0 0.00 0.01 0.01 80 1012.2
20260903165918 91 253 6.0 8.0 0.00 0.01 0.01 81 1012.4
20260903165413 90 276 4.0 7.0 0.00 0.01 0.01 81 1012.7
20260903164907 91 218 3.0 7.0 0.00 0.01 0.01 81 1012.7
20260903164402 89 206 2.0 5.0 0.00 0.01 0.01 83 1012.7
20260903163901 90 181 2.0 3.0 0.00 0.01 0.01 83 1012.8
20260903163358 89 213 5.0 6.0 0.00 0.01 0.01 85 1012.6
20260903162854 89 216 5.0 6.0 0.00 0.01 0.01 83 1012.5
20260903162350 88 207 1.0 2.0 0.00 0.01 0.01 86 1012.6
20260903161846 87 218 1.0 3.0 0.00 0.01 0.01 87 1012.6
20260903161341 87 215 2.0 5.0 0.00 0.01 0.01 87 1012.5
20260903160837 88 214 4.0 8.0 0.00 0.01 0.01 87 1012.6
20260903160335 88 199 3.0 7.0 0.00 0.01 0.01 87 1012.5
20260903155834 87 196 2.0 2.0 0.00 0.01 0.01 87 1012.5
20260903155329 87 159 2.0 3.0 0.00 0.01 0.01 88 1012.6
20260903154825 87 221 1.0 3.0 0.00 0.01 0.01 89 1012.6
20260903154321 87 219 2.0 5.0 0.00 0.01 0.01 89 1012.6
20260903153816 86 200 0.0 5.0 0.00 0.01 0.01 89 1012.8
20260903153312 86 184 2.0 3.0 0.00 0.01 0.01 90 1012.5